Location: Dompnac
(44.5644°N, 4.1026°E)
Time: 13:52:41
(UTC+00:00)

Cosmos 2026 Rocket - Pass Details

Date: 17 January 2021
Orbit: 940 x 1000 km, 82.9° (Epoch: 28 February)

Event Time Altitude Azimuth Distance (km) Brightness Sun altitude
Rises 20:05:03 0° 209° (SSW) 3,595 7.2 -37.4°
Reaches altitude 10° 20:07:40 10° 216° (SW) 2,659 6.5 -37.9°
Enters shadow 20:11:05 30° 241° (WSW) 1,635 5.4 -38.5°
